Location: ????????
(55.6189°N, 38.3031°E)
Time: 00:07:15
(UTC+00:00)

Cosmos 2285 Rocket - Pass Details

Date: 15 November 2019
Orbit: 971 x 999 km, 74.0° (Epoch: 14 December)

Event Time Altitude Azimuth Distance (km) Brightness Sun altitude
Exits shadow 01:34:05 60° 332° (NNW) 1,136 4.1 -28.7°
Drops below altitude 10° 01:39:52 10° 26° (NNE) 2,774 6.7 -27.9°
Sets 01:42:29 0° 29° (NNE) 3,723 7.5 -27.6°
